Ogden, UT

7:32 PM MST on February 07, 2016 (GMT -0700)
Ogden-Hinckley

Weather History for KOGD - November, 2013

Change the Weather History Date:

Sunday, November 17, 2013

  Actual Average Record
Temperature  
Mean Temperature 42 °F -  
Max Temperature 50 °F 49 °F 65 °F (1981)
Min Temperature 35 °F 28 °F -1 °F (1955)
Degree Days  
Heating Degree Days 22    
Moisture  
Dew Point 28 °F    
Average Humidity 64    
Maximum Humidity 82    
Minimum Humidity 39    
Precipitation  
Precipitation 0.00 in - - ()
Sea Level Pressure  
Sea Level Pressure 30.02 in    
Wind  
Wind Speed 5 mph (SSE)    
Max Wind Speed 9 mph    
Max Gust Speed -    
Visibility 10 miles    
Events      
Averages and records for this station are not official NWS values.
T = Trace of Precipitation, MM = Missing Value Source: NWS Daily Summary

Daily Weather History Graph

Daily Weather History Graph

Search for Another Location

Airport or City:

Trip Planner

Search our weather history database for the weather conditions in past years. The results will help you decide how hot, cold, wet, or windy it might be!

Date:

Astronomy

Nov. 17, 2013 Rise Set
Actual Time 7:18 AM MST 5:07 PM MST
Civil Twilight 6:48 AM MST 5:36 PM MST
Nautical Twilight 6:15 AM MST 6:10 PM MST
Astronomical Twilight 5:42 AM MST 6:42 PM MST
Moon 5:26 PM MST (11/17) 7:16 AM MST (11/17)
Length of Visible Light 10h 47m
Length of Day
9h 48m
Full, 100% of the Moon is Illuminated
Nov 17
Full
Nov 25
Last Quarter
Dec 2
New
Dec 9
First Quarter
Dec 17
Full

Hourly Weather History & Observations

Time (MST) Temp. Windchill Dew Point Humidity Pressure Visibility Wind Dir Wind Speed Gust Speed Precip Events Conditions
12:53 AM 36.0 °F 31.1 °F 30.9 °F 82% 29.83 in 10.0 mi South 5.8 mph - 0.00 in   Overcast
1:53 AM 36.0 °F 33.3 °F 30.0 °F 79% 29.86 in 10.0 mi SE 3.5 mph - 0.00 in   Overcast
2:53 AM 36.0 °F 33.3 °F 28.9 °F 76% 29.88 in 10.0 mi SW 3.5 mph - 0.00 in   Overcast
3:53 AM 36.0 °F 32.1 °F 30.0 °F 79% 29.91 in 10.0 mi SSE 4.6 mph - N/A   Overcast
4:53 AM 36.0 °F 31.1 °F 30.0 °F 79% 29.94 in 10.0 mi South 5.8 mph - N/A   Overcast
5:53 AM 35.1 °F 32.2 °F 30.0 °F 82% 29.96 in 10.0 mi SSE 3.5 mph - N/A   Overcast
6:53 AM 35.1 °F 30.1 °F 30.0 °F 82% 29.97 in 10.0 mi South 5.8 mph - N/A   Overcast
7:53 AM 36.0 °F 31.1 °F 30.0 °F 79% 29.99 in 10.0 mi SSE 5.8 mph - N/A   Overcast
8:53 AM 37.0 °F 33.3 °F 30.0 °F 76% 30.01 in 10.0 mi South 4.6 mph - N/A   Partly Cloudy
9:53 AM 41.0 °F 37.1 °F 30.0 °F 65% 30.03 in 10.0 mi SSE 5.8 mph - N/A   Overcast
10:53 AM 43.0 °F 37.7 °F 28.0 °F 56% 30.05 in 10.0 mi South 9.2 mph - N/A   Overcast
11:53 AM 46.0 °F 44.8 °F 26.1 °F 46% 30.05 in 10.0 mi ESE 3.5 mph - N/A   Mostly Cloudy
12:53 PM 46.9 °F - 24.1 °F 41% 30.04 in 10.0 mi Calm Calm - N/A   Clear
1:53 PM 48.0 °F - 26.1 °F 42% 30.04 in 10.0 mi East 4.6 mph - N/A   Clear
2:53 PM 50.0 °F - 26.1 °F 39% 30.04 in 10.0 mi Variable 3.5 mph - N/A   Clear
3:53 PM 50.0 °F - 26.1 °F 39% 30.04 in 10.0 mi ESE 4.6 mph - N/A   Clear
4:53 PM 48.0 °F - 25.0 °F 41% 30.06 in 10.0 mi Calm Calm - N/A   Clear
5:53 PM 42.1 °F 39.2 °F 27.0 °F 55% 30.08 in 10.0 mi NE 4.6 mph - N/A   Clear
6:53 PM 39.0 °F 34.8 °F 28.9 °F 67% 30.10 in 10.0 mi South 5.8 mph - N/A   Clear
7:53 PM 37.9 °F 32.7 °F 27.0 °F 65% 30.10 in 10.0 mi South 6.9 mph - N/A   Clear
8:53 PM 37.9 °F 32.1 °F 27.0 °F 65% 30.10 in 10.0 mi South 8.1 mph - N/A   Clear
9:53 PM 37.0 °F 31.0 °F 27.0 °F 67% 30.11 in 10.0 mi South 8.1 mph - N/A   Clear
10:53 PM 36.0 °F 30.3 °F 27.0 °F 70% 30.11 in 10.0 mi South 6.9 mph - N/A   Clear
11:53 PM 36.0 °F 30.3 °F 26.1 °F 67% 30.12 in 10.0 mi South 6.9 mph - N/A   Clear